Home   Weather   Elizabeth   Past weeks

Flag for USA Past Weather in Elizabeth, New Jersey, USA — Yesterday and Last 2 Weeks

Now
57 °F

Light rain. Fog.


Feels Like: 54 °F
Forecast: 59 / 65 °F
Wind: 14 mph from Northeast

Location: Newark International Airport

Current Time: Sep 30, 2016 at 9:38:04 PM

Latest Report: Sep 30, 2016 at 8:51 PM


Visibility: 2 mi

Pressure: 30.26 "Hg

Humidity: 96%

Dew Point: 56 °F

Location of ElizabethLocation

Past Weather in Elizabeth — Graph

°F

Elizabeth Temperature Yesterday

Maximum temperature yesterday: 65 °F (at 4:51 PM)
Minimum temperature yesterday: 58 °F (at 12:51 AM)
Average temperature yesterday: 62 °F

High & Low Weather Summary for the Past Weeks

 TemperatureHumidityPressure
High89 °F (Sep 23, 1:51 PM)97% (Sep 27, 4:51 AM)30.36 "Hg (Sep 27, 4:51 AM)
Low51 °F (Sep 26, 5:51 AM)19% (Sep 21, 2:51 PM)29.87 "Hg (Sep 27, 4:51 PM)
Average69 °F68%30.13 "Hg
* Reported Sep 15 7:51 PM — Sep 30 7:51 PM, Elizabeth, Weather by CustomWeather, © 2016

Note: Actual official high and low records may vary slightly from our data, if they occured in-between our weather recording intervals... More about our weather records

Advertising

Elizabeth Weather History for the Previous 24 Hours

Scroll right to see more
 ConditionsComfort  
Time TempWeatherWind HumidityBarometerVisibility
7:51 PM
Fri, Sep 30
58 °FLight rain. Fog.16 mph97%30.25 "Hg2 mi
6:51 PM58 °FLight rain. Fog.14 mph97%30.25 "Hg1 mi
5:51 PM58 °FLight rain. Fog.15 mph97%30.24 "Hg1 mi
4:51 PM59 °FLight rain. Fog.15 mph96%30.24 "Hg1 mi
3:51 PM59 °FLight rain. Fog.17 mph96%30.24 "Hg1 mi
2:51 PM59 °FLight rain. Fog.16 mph96%30.25 "Hg1 mi
1:51 PM59 °FLight rain. Fog.14 mph93%30.27 "Hg2 mi
12:51 PM59 °FLight rain. Fog.17 mph93%30.27 "Hg2 mi
11:51 AM59 °FLight rain. Fog.16 mph90%30.29 "Hg2 mi
10:51 AM57 °FLight rain. Fog.15 mph90%30.30 "Hg2 mi
9:51 AM57 °FLight rain. Fog.17 mph90%30.29 "Hg2 mi
8:51 AM57 °FLight rain. Fog.18 mph87%30.30 "Hg2 mi
7:51 AM57 °FLight rain. Overcast.16 mph83%30.29 "Hg9 mi
6:51 AM58 °FLight rain. Overcast.18 mph78%30.29 "Hg10 mi
5:51 AM59 °FOvercast.18 mph72%30.28 "Hg10 mi
4:51 AM58 °FOvercast.23 mph78%30.29 "Hg10 mi
3:51 AM57 °FOvercast.18 mph81%30.29 "Hg10 mi
2:51 AM57 °FLight rain. Overcast.17 mph81%30.31 "Hg10 mi
1:51 AM57 °FMostly cloudy.18 mph81%30.33 "Hg10 mi
12:51 AM59 °FLight rain. Mostly cloudy.14 mph78%30.34 "Hg10 mi
11:51 PM
Thu, Sep 29
60 °FLight rain. Overcast.14 mph80%30.35 "Hg10 mi
10:51 PM60 °FLight rain. Mostly cloudy.13 mph80%30.36 "Hg8 mi
9:51 PM62 °FLight rain. Mostly cloudy.15 mph73%30.36 "Hg10 mi
Weather by CustomWeather, © 2016

See weather overviewHow to use our weather pages